User: anonymous   Login
Location: Caltech
(34.1382°N, 118.1253°W)
Time: 21:01:20
(UTC-08:00)
Language:

Iridium 21 - Orbit

View from above orbital plane
View from above orbital plane
View from above satellite
View from above satellite

Ground track
Ground track

The orbit data is extracted from the following two-line orbital elements,

1 25778U 99032B   14332.38688904  .00000654  00000-0  22641-3 0  9994
2 25778 086.3981 253.4190 0001876 100.4648 038.3877 14.34217574814552
Epoch (UTC): 28 November 2014 09:17:07
Eccentricity: 0.0001876
inclination: 86.3981°
perigee height: 776 km
apogee height: 779 km
right ascension of ascending node: 253.4190°
argument of perigee: 100.4648°
revolutions per day: 14.34217574
mean anomaly at epoch: 38.3877°
orbit number at epoch: 81455

The dashed part of the orbit path shows where the satellite is in the earth's shadow,  

DLR